Temp
17 17 19 18 17 16 16 15 14 14 14 13 12 11 10 11 11 11 11 11 10 10 9 8 8 6 6 4 3 2 2 0 -3 -1 -0 -2 -2 -3 -2 -3 -3 -3 -2
16 17 18 16 15 15 15 14 13 13 12 11 12 10 10 11 10 11 11 10 10 9 8 7 6 6 5 4 3 3 2 2 -3 -3 1 1 0 -3 -2 -2 -2 -2 -3
17 18 17 15 15 14 14 13 13 12 10 9 9 10 10 10 10 10 10 9 9 8 7 6 5 5 4 3 3 2 2 1 0 -2 -1 -1 -2 -2 -2 -2 -1 -2 -2
16 16 16 15 14 13 13 12 12 11 9 9 9 9 9 9 10 9 9 9 8 7 6 5 4 3 4 3 2 2 1 1 1 -1 -3 -3 -3 -2 -2 -3 -2 -2 -2
15 15 14 14 14 12 12 12 11 9 9 9 8 9 9 10 9 9 8 7 6 5 4 4 3 3 3 2 2 1 1 1 0 -3 -3 -3 -3 -2 -3 -3 -4 -3 -1
15 14 14 13 13 12 12 11 10 9 9 9 9 9 9 8 8 8 7 6 5 4 3 2 3 3 2 1 1 1 0 0 -1 -3 -2 -3 -2 -2 -2 -3 -4 -4 -3
14 13 13 12 12 12 11 10 9 9 9 9 9 9 8 8 7 6 6 4 3 3 2 2 3 2 1 1 1 1 1 -0 -3 -2 -2 -3 -2 -2 -2 -3 -3 -3 -3
13 12 12 12 12 11 10 9 9 9 9 9 8 8 7 6 6 5 4 3 2 2 2 2 2 1 1 1 1 1 1 -1 -2 -3 -3 -2 -3 -3 -3 -3 -2 -2 -2
13 12 12 12 12 10 9 9 9 9 8 8 7 7 6 6 4 4 3 2 2 1 2 2 1 1 1 1 1 1 0 -1 -3 -2 -2 -2 -2 -2 -2 -2 -2 -2 -2
14 12 12 12 12 10 9 9 8 8 8 7 6 5 4 3 3 2 2 2 1 2 1 1 1 1 1 1 1 1 1 -0 -2 -2 -2 -2 -2 -2 -2 -2 -2 -2 -2
12 11 11 10 10 9 8 8 8 7 6 5 4 4 3 2 1 1 1 1 1 1 0 -0 -0 -0 1 1 0 0 0 -1 -3 -3 -2 -3 -2 -2 -2 -2 -2 -2 -2
11 10 10 9 8 8 8 7 6 6 4 4 4 3 2 1 1 0 0 1 0 -0 -0 -0 -1 -0 1 0 0 0 -1 -2 -2 -3 -3 -3 -3 -3 -3 -3 -3 -2 -2
9 8 8 7 7 7 6 6 4 3 3 3 2 2 1 0 -1 -0 1 -0 -1 -1 -1 -1 -1 -0 -0 -0 -1 -2 -2 -2 -2 -3 -3 -3 -4 -4 -5 -4 -3 -3 -2
8 6 5 5 5 5 4 4 3 3 2 2 1 1 0 -1 -1 -0 -1 -2 -2 -1 -1 -1 -2 -2 -2 -2 -2 -2 -2 -3 -3 -4 -4 -4 -4 -5 -4 -4 -4 -4 -4
4 3 3 3 3 3 2 2 2 1 2 1 1 0 -0 -1 -0 -1 -2 -2 -3 -4 -4 -3 -4 -3 -4 -4 -4 -3 -3 -4 -4 -4 -5 -5 -5 -5 -5 -5 -4 -4 -5
3 1 1 2 2 1 1 -0 -0 0 -0 -1 -1 -1 -2 -1 -1 -1 -2 -4 -5 -6 -5 -5 -5 -6 -5 -5 -4 -4 -4 -4 -4 -5 -5 -5 -5 -5 -5 -5 -5 -5 -5
3 1 1 1 0 -0 0 1 1 -2 -2 -3 -3 -2 -2 -1 -2 -2 -4 -5 -6 -6 -6 -6 -6 -6 -6 -6 -5 -4 -4 -4 -5 -5 -5 -5 -6 -6 -6 -6 -6 -6 -6
1 1 0 -0 0 1 1 -0 -1 -1 -2 -3 -4 -3 -3 -3 -3 -5 -5 -6 -6 -6 -7 -6 -6 -6 -5 -5 -5 -5 -6 -5 -5 -5 -5 -6 -6 -6 -6 -7 -7 -7 -7
-0 -0 0 1 0 -0 -1 -1 -2 -2 -3 -3 -3 -3 -3 -4 -5 -6 -6 -6 -6 -7 -7 -6 -6 -6 -5 -5 -5 -5 -5 -5 -5 -5 -6 -6 -6 -7 -7 -7 -7 -7 -7
1 0 0 -1 -1 -1 -2 -2 -2 -3 -3 -3 -3 -3 -4 -5 -6 -6 -6 -7 -7 -7 -7 -7 -7 -6 -6 -5 -5 -5 -5 -5 -5 -5 -6 -6 -7 -7 -7 -7 -7 -7 -7
-1 -1 -1 -1 -1 -2 -2 -3 -3 -3 -4 -4 -4 -4 -5 -5 -7 -7 -7 -7 -8 -8 -8 -8 -8 -7 -6 -6 -6 -6 -6 -6 -6 -6 -6 -6 -7 -7 -7 -7 -7 -7 -7
-1 -1 -1 -2 -2 -3 -3 -4 -4 -5 -5 -5 -5 -6 -7 -7 -7 -8 -8 -8 -8 -8 -9 -9 -9 -8 -7 -7 -7 -6 -6 -6 -6 -6 -6 -6 -6 -7 -7 -7 -7 -7 -7
-1 -1 -2 -3 -3 -4 -4 -4 -5 -5 -5 -6 -6 -7 -7 -8 -8 -8 -9 -9 -9 -9 -9 -9 -9 -9 -9 -8 -7 -7 -7 -7 -7 -7 -7 -7 -7 -7 -7 -7 -7 -7 -7
-2 -3 -4 -4 -4 -4 -4 -5 -5 -5 -5 -6 -7 -7 -8 -9 -9 -9 -9 -9 -9 -9 -9 -10 -10 -10 -9 -8 -7 -7 -8 -8 -8 -7 -7 -7 -7 -7 -7 -8 -8 -8 -8
-3 -5 -4 -4 -4 -4 -5 -5 -5 -6 -6 -6 -7 -8 -9 -9 -10 -9 -9 -9 -8 -8 -9 -9 -9 -8 -8 -7 -7 -7 -7 -7 -8 -8 -8 -8 -8 -8 -8 -8 -8 -8 -8
-5 -5 -5 -5 -5 -5 -5 -5 -5 -6 -6 -7 -8 -9 -9 -10 -9 -9 -9 -7 -7 -8 -9 -8 -8 -7 -7 -7 -7 -7 -8 -8 -8 -8 -8 -8 -8 -8 -8 -8 -8 -8 -9
Height
1390 1396 1404 1410 1417 1424 1429 1434 1439 1442 1446 1448 1451 1457 1461 1464 1469 1470 1472 1473 1474 1475 1474 1474 1473 1471 1470 1468 1465 1463 1460 1457 1448 1443 1439 1436 1431 1426 1423 1419 1414 1408 1403
1384 1392 1397 1404 1412 1417 1422 1429 1434 1438 1439 1442 1448 1453 1458 1462 1466 1466 1468 1469 1470 1470 1469 1468 1468 1467 1465 1463 1459 1457 1454 1451 1445 1438 1433 1429 1424 1420 1416 1411 1407 1403 1397
1380 1385 1391 1399 1405 1411 1416 1423 1429 1432 1435 1439 1445 1452 1455 1459 1462 1463 1464 1465 1465 1465 1464 1464 1463 1461 1459 1459 1455 1452 1448 1445 1441 1434 1427 1424 1419 1415 1409 1405 1400 1396 1392
1376 1382 1388 1394 1399 1405 1412 1419 1423 1428 1432 1438 1442 1448 1452 1455 1457 1460 1460 1461 1461 1461 1460 1459 1458 1457 1455 1454 1450 1447 1444 1440 1436 1431 1424 1419 1415 1410 1406 1400 1394 1391 1389
1374 1379 1385 1391 1395 1402 1408 1414 1419 1424 1430 1434 1440 1445 1448 1451 1453 1454 1455 1456 1456 1456 1456 1455 1455 1453 1452 1449 1446 1443 1440 1437 1432 1427 1423 1417 1412 1406 1401 1397 1392 1389 1387
1369 1375 1381 1387 1393 1399 1403 1408 1415 1421 1426 1431 1436 1440 1443 1445 1448 1450 1451 1451 1452 1452 1452 1451 1451 1450 1448 1446 1443 1440 1437 1433 1429 1425 1421 1416 1410 1404 1399 1394 1392 1390 1387
1364 1369 1375 1381 1386 1391 1397 1402 1408 1415 1422 1426 1431 1435 1437 1441 1443 1444 1445 1446 1447 1448 1448 1448 1447 1446 1445 1443 1440 1437 1434 1430 1427 1424 1420 1416 1408 1402 1397 1394 1393 1392 1390
1358 1364 1369 1375 1380 1387 1391 1397 1403 1410 1417 1422 1425 1429 1432 1435 1438 1439 1440 1442 1443 1444 1445 1444 1443 1443 1441 1439 1436 1433 1430 1427 1425 1423 1420 1415 1410 1405 1400 1397 1395 1393 1391
1350 1355 1361 1367 1373 1379 1385 1389 1398 1405 1410 1416 1421 1424 1428 1431 1433 1435 1437 1439 1440 1441 1440 1439 1440 1439 1438 1436 1432 1430 1427 1425 1423 1421 1418 1414 1410 1406 1403 1400 1397 1394 1393
1339 1345 1352 1360 1367 1372 1378 1384 1392 1401 1406 1410 1415 1419 1424 1429 1431 1433 1435 1436 1436 1436 1435 1436 1436 1435 1433 1431 1429 1426 1423 1422 1419 1418 1416 1412 1408 1405 1403 1400 1398 1395 1393
1332 1339 1346 1354 1360 1368 1376 1384 1388 1395 1401 1406 1412 1417 1421 1426 1430 1432 1433 1432 1435 1433 1432 1434 1434 1432 1430 1429 1427 1424 1422 1419 1417 1415 1413 1410 1407 1405 1404 1402 1398 1396 1393
1327 1333 1339 1347 1356 1364 1372 1378 1384 1391 1398 1404 1405 1411 1417 1422 1426 1429 1431 1433 1432 1432 1431 1432 1432 1430 1428 1426 1425 1423 1420 1418 1416 1414 1412 1408 1406 1406 1404 1403 1399 1397 1395
1322 1327 1334 1342 1352 1358 1369 1375 1381 1389 1394 1400 1407 1409 1414 1418 1421 1424 1428 1431 1430 1429 1429 1429 1429 1429 1427 1425 1423 1422 1421 1419 1416 1414 1411 1409 1407 1406 1405 1403 1399 1397 1397
1315 1322 1330 1340 1348 1359 1367 1375 1379 1384 1392 1401 1405 1408 1413 1415 1418 1421 1425 1427 1428 1427 1427 1427 1427 1427 1426 1424 1423 1422 1420 1419 1416 1414 1412 1411 1410 1409 1408 1405 1400 1398 1397
1310 1318 1328 1339 1347 1356 1367 1375 1382 1390 1394 1394 1400 1404 1410 1413 1416 1419 1422 1425 1426 1426 1427 1426 1426 1425 1426 1424 1423 1422 1420 1419 1417 1415 1414 1413 1412 1411 1409 1407 1403 1401 1399
1308 1318 1326 1336 1348 1357 1365 1377 1385 1388 1393 1396 1397 1402 1407 1410 1412 1415 1420 1423 1425 1426 1426 1426 1425 1425 1425 1425 1423 1422 1421 1419 1418 1417 1416 1415 1414 1413 1411 1409 1407 1406 1403
1309 1317 1327 1337 1347 1357 1366 1371 1378 1383 1389 1394 1398 1401 1404 1408 1410 1413 1418 1420 1424 1425 1425 1425 1424 1425 1425 1425 1423 1423 1421 1418 1418 1417 1417 1416 1416 1415 1412 1410 1410 1411 1408
1312 1318 1327 1338 1348 1355 1361 1368 1376 1381 1387 1392 1397 1400 1403 1406 1408 1413 1416 1420 1423 1424 1423 1424 1425 1426 1425 1424 1424 1424 1423 1420 1420 1420 1419 1419 1419 1416 1415 1413 1414 1415 1413
1314 1323 1333 1340 1346 1354 1362 1369 1376 1381 1387 1390 1393 1398 1402 1405 1409 1412 1416 1419 1421 1422 1423 1424 1425 1426 1425 1424 1424 1423 1421 1420 1420 1421 1420 1421 1420 1418 1418 1417 1418 1419 1417
1319 1327 1334 1341 1349 1356 1363 1369 1375 1380 1386 1389 1393 1397 1400 1404 1407 1411 1415 1418 1420 1422 1424 1425 1425 1425 1425 1425 1425 1424 1422 1422 1422 1421 1423 1423 1421 1420 1421 1421 1423 1422 1420
1322 1331 1338 1345 1351 1357 1362 1368 1374 1380 1385 1390 1394 1398 1402 1405 1408 1411 1414 1416 1419 1422 1425 1424 1425 1425 1425 1425 1426 1425 1424 1424 1424 1424 1425 1423 1423 1423 1424 1426 1427 1425 1424
1328 1334 1340 1345 1352 1358 1364 1369 1375 1380 1385 1389 1392 1397 1402 1406 1409 1412 1415 1416 1419 1422 1424 1426 1425 1425 1425 1426 1427 1427 1426 1427 1426 1425 1426 1425 1425 1426 1427 1429 1429 1428 1428
1332 1337 1342 1348 1353 1360 1365 1371 1376 1381 1385 1389 1394 1397 1402 1405 1408 1412 1415 1417 1419 1422 1424 1425 1426 1425 1425 1425 1426 1427 1428 1429 1429 1427 1427 1426 1427 1429 1430 1431 1431 1431 1431
1335 1340 1343 1349 1355 1361 1368 1372 1377 1383 1386 1389 1394 1398 1402 1404 1407 1412 1413 1416 1419 1421 1423 1426 1425 1427 1427 1426 1426 1428 1429 1430 1431 1429 1428 1429 1430 1431 1432 1433 1433 1434 1434
1339 1343 1347 1352 1357 1363 1369 1373 1378 1384 1388 1392 1394 1400 1402 1405 1408 1411 1414 1416 1417 1421 1423 1425 1428 1427 1428 1427 1429 1429 1431 1432 1431 1430 1431 1432 1433 1434 1435 1435 1436 1437 1437
1342 1346 1350 1355 1360 1365 1370 1374 1380 1385 1389 1391 1397 1401 1402 1404 1408 1411 1415 1416 1418 1421 1425 1427 1427 1428 1429 1430 1431 1433 1433 1433 1432 1432 1434 1435 1437 1437 1438 1439 1440 1440 1440
Wind_Speed
50 48 44 44 42 39 38 37 34 36 40 44 41 36 31 27 25 21 20 19 19 19 21 22 23 23 23 23 23 24 24 25 29 36 37 39 40 37 36 31 31 30 27
44 42 43 41 41 40 38 33 36 37 45 41 37 31 27 23 21 20 18 18 18 20 20 20 21 22 22 22 22 22 23 23 26 37 39 40 39 36 34 34 29 25 23
42 44 41 40 39 38 33 32 35 40 44 37 27 27 24 23 21 18 17 17 18 19 19 19 19 19 19 21 20 20 20 23 27 33 40 39 38 38 37 32 26 24 22
44 41 40 40 38 35 31 31 37 39 37 32 28 27 24 21 19 16 15 15 16 17 18 17 16 16 18 20 18 17 19 23 27 32 36 39 39 38 36 33 27 23 22
38 38 40 39 37 33 30 32 36 35 33 27 29 26 22 20 17 15 14 14 15 16 15 14 15 16 19 16 16 16 19 24 27 29 33 35 38 38 33 28 25 20 13
37 40 41 39 36 33 31 35 39 36 32 30 28 24 22 19 16 14 14 14 13 13 13 13 14 16 15 15 14 16 20 23 24 23 27 31 34 32 28 21 19 15 18
38 42 43 41 37 36 38 42 41 38 35 32 29 25 22 18 16 15 13 11 10 11 12 14 14 13 14 14 15 17 18 18 16 18 22 23 29 25 20 13 8 9 16
41 44 43 42 40 40 45 44 42 39 35 32 29 25 21 18 15 14 11 10 9 11 13 14 11 11 12 13 15 16 15 14 13 11 15 17 19 17 12 11 10 13 13
45 46 47 45 44 46 48 46 43 40 36 32 27 23 19 17 15 12 9 10 11 12 13 11 11 10 11 13 14 14 12 10 6 8 11 13 13 12 12 9 12 14 14
48 48 49 49 48 50 50 48 43 39 36 32 27 22 18 14 11 10 11 12 10 11 10 10 10 10 12 11 12 12 12 11 9 6 7 8 9 10 9 8 9 9 13
46 47 50 53 53 51 50 46 43 39 34 31 24 19 16 12 9 11 12 7 10 9 8 9 9 9 9 8 9 11 11 11 9 8 9 7 7 6 6 7 6 7 7
43 47 53 57 55 53 50 47 42 39 33 28 25 20 15 9 8 9 9 13 9 7 7 7 6 7 6 6 7 9 9 8 7 5 5 6 7 7 7 6 5 6 6
43 46 54 55 55 54 49 46 41 35 31 27 21 17 13 12 9 9 14 10 8 6 5 4 4 4 4 4 5 6 6 6 6 6 8 9 9 8 9 8 6 4 4
43 47 50 53 52 48 45 41 38 34 29 21 17 13 12 12 12 14 10 9 7 5 4 4 3 2 2 2 3 4 4 5 7 8 10 10 10 9 8 7 7 6 3
44 44 47 48 48 44 39 34 30 24 17 13 13 14 15 15 13 11 9 7 5 5 4 3 3 1 2 3 4 4 5 5 6 8 9 8 8 8 8 9 8 6 5
40 42 46 46 43 39 37 30 22 15 15 14 14 14 15 13 12 10 8 7 6 6 4 5 4 3 3 4 5 4 5 6 7 7 8 8 8 8 9 9 9 7 8
40 42 44 44 43 38 31 23 24 21 18 17 16 16 15 13 12 10 12 9 6 4 4 6 5 4 4 5 6 6 6 7 7 7 7 8 8 8 8 9 9 7 9
40 46 49 44 35 28 29 30 28 25 25 23 18 16 16 15 14 14 12 9 7 4 3 6 5 4 4 5 6 6 7 7 6 6 7 8 8 8 8 9 9 8 8
50 42 34 31 33 33 30 26 24 23 23 22 21 19 17 17 16 14 12 9 8 6 4 5 5 4 5 6 6 7 7 8 7 6 7 7 9 9 9 10 8 9 9
33 31 32 33 31 28 26 25 25 24 22 20 20 21 21 20 19 17 14 11 10 8 5 3 3 3 4 4 5 6 7 7 7 7 7 8 10 10 10 10 9 10 10
32 33 31 29 27 25 25 24 23 23 23 21 19 16 16 17 16 16 15 13 11 10 8 5 3 3 2 3 4 5 6 7 7 8 8 9 10 9 9 8 8 9 11
32 30 28 26 25 24 23 22 23 24 23 21 19 17 16 16 16 16 14 13 12 10 7 5 4 4 4 2 1 4 5 6 8 9 8 8 9 8 8 7 7 7 6
26 24 23 23 23 23 22 23 24 24 23 20 19 18 17 17 17 16 15 13 12 10 8 6 5 5 4 4 3 4 5 5 7 9 9 7 6 6 7 7 8 8 7
20 22 24 25 25 24 24 24 23 22 22 21 19 16 16 16 16 16 15 14 13 11 10 8 7 6 5 5 5 5 6 6 7 8 9 8 7 7 6 6 6 6 6
18 20 23 25 26 25 24 23 22 22 21 19 17 17 17 16 17 15 14 13 12 11 11 9 8 7 6 7 7 7 7 8 10 10 10 8 8 8 8 9 9 10 9
19 20 23 25 25 24 24 23 22 22 20 17 19 19 18 16 16 16 14 13 13 12 11 10 9 8 9 9 9 10 10 9 9 10 9 9 9 10 9 11 11 11 12
Wind_Direction
228 225 224 226 226 229 227 228 230 229 225 220 211 215 216 227 229 233 244 253 264 276 280 284 287 289 290 289 290 290 291 292 297 306 313 316 317 319 322 324 322 319 308
224 222 222 220 219 220 221 223 226 226 215 208 220 212 221 222 229 239 246 256 269 275 281 286 287 288 290 291 292 291 295 303 308 309 317 322 323 323 326 325 323 321 319
222 221 218 216 217 216 221 222 224 219 212 207 208 217 222 227 232 239 249 263 272 279 283 283 282 287 292 293 294 300 308 312 315 316 320 326 329 333 331 328 326 327 329
222 220 216 213 214 216 216 222 217 218 209 202 210 216 217 221 230 243 256 266 272 275 276 278 284 292 295 294 302 309 316 320 322 323 326 331 332 336 330 328 328 330 328
224 220 214 211 213 212 215 217 214 207 205 212 209 211 215 223 231 240 253 261 267 271 275 281 288 294 293 303 307 316 322 324 324 329 329 332 334 334 332 327 327 331 333
224 219 214 212 213 212 212 211 204 205 205 204 209 211 216 221 227 243 255 259 264 270 274 281 289 292 301 302 305 316 322 323 324 327 329 334 335 336 333 330 331 339 339
226 219 214 211 210 210 206 202 202 204 203 206 208 211 215 218 230 245 255 253 255 265 272 279 287 298 298 299 304 309 315 317 318 321 327 339 341 342 334 341 355 345 337
226 218 212 210 207 206 202 202 202 201 204 206 206 209 210 219 231 242 239 242 252 260 270 278 293 297 301 305 308 312 316 318 322 332 334 344 353 3 14 20 3 349 344
228 218 211 207 205 204 201 199 200 202 201 204 207 207 213 222 229 234 233 240 246 256 269 286 287 297 307 310 314 318 327 325 314 329 341 341 349 358 358 355 3 5 349
229 221 215 207 206 204 201 199 201 202 203 201 201 204 209 216 219 223 237 245 249 260 276 279 287 295 307 312 317 327 336 332 329 317 321 334 342 352 351 358 355 352 349
227 218 211 206 204 202 200 199 199 197 197 195 193 196 201 207 220 234 238 247 261 260 259 270 284 299 307 314 326 334 339 347 343 332 331 337 342 345 351 2 6 3 359
225 214 207 203 201 201 201 197 196 195 192 191 189 185 187 199 222 249 272 254 240 242 251 268 280 298 313 323 336 344 349 346 338 344 321 323 332 355 0 354 13 1 358
218 211 206 200 201 199 198 195 189 188 187 183 181 175 182 209 224 250 241 227 227 229 243 255 274 302 324 339 347 349 357 6 20 18 18 15 16 14 3 5 20 5 344
211 204 201 199 194 193 193 192 187 181 176 168 177 193 208 215 216 219 218 215 220 227 232 223 237 297 339 348 3 7 16 31 40 44 39 31 25 16 4 11 26 22 351
198 195 193 192 188 183 183 181 176 167 179 184 203 209 212 206 203 197 200 208 213 211 207 197 182 129 36 29 39 38 45 49 49 46 47 39 25 17 16 27 27 38 73
192 187 186 183 177 172 163 155 166 178 187 186 186 187 188 191 193 193 198 194 198 199 209 188 146 111 69 46 58 58 58 54 50 47 45 44 31 27 27 35 43 52 76
189 182 175 165 159 154 158 167 187 178 180 182 181 188 186 193 189 189 184 182 186 205 248 184 144 126 100 74 56 57 59 61 55 52 50 50 39 31 37 46 55 64 85
176 163 157 153 154 167 191 187 182 178 177 181 183 182 180 182 179 175 177 180 194 199 191 169 152 132 103 80 67 57 53 53 52 48 49 46 46 46 53 62 65 70 83
151 148 156 171 178 177 170 169 173 176 183 182 175 172 178 177 173 168 173 196 200 182 155 139 131 123 100 81 63 57 57 60 57 56 56 57 57 56 67 72 82 83 80
154 166 170 165 161 162 166 172 179 182 181 179 177 179 175 178 179 180 183 194 183 178 178 162 169 133 109 80 60 54 57 62 62 63 70 68 66 73 81 81 88 90 79
156 153 154 156 162 170 177 180 182 181 177 171 171 176 183 189 185 181 182 180 181 189 196 188 174 157 133 85 64 58 62 69 71 70 75 83 79 81 83 95 93 91 79
149 155 163 169 173 175 178 177 176 173 171 168 163 163 169 175 175 174 173 171 171 173 163 158 153 152 123 102 63 46 57 80 86 80 76 85 88 86 86 95 95 103 96
162 166 169 168 168 169 170 170 171 173 170 169 167 165 168 172 169 170 169 170 166 165 165 165 151 131 131 151 131 97 89 88 89 85 74 76 95 107 103 104 93 95 103
165 167 162 161 163 165 168 166 168 173 172 171 170 175 173 173 174 175 173 172 169 168 164 165 154 153 129 112 108 127 121 111 93 86 83 82 90 110 122 121 108 101 100
164 160 161 166 168 170 170 169 172 173 172 174 179 177 171 170 165 165 165 162 158 157 156 158 153 132 122 106 103 104 114 118 110 92 84 91 105 106 110 113 111 109 99
155 161 165 170 171 173 174 174 176 177 178 180 179 175 173 172 171 169 165 158 156 157 161 154 140 125 111 102 101 106 103 101 100 102 103 104 109 110 109 111 113 108 107